"Pseudo-MPEC" for P10HMKF

Created 2018 Jun 17 14:18:17 UT using Find_Orb

Click here for an explanation of pseudo-MPECs

 
 Astrometry: 
     P10HMKF  C2018 06 13sFAstrometry+SILCt0Lb`5s9O1I[fG/^-gjh\7\f1\qd+CbY-4vF51
     P10HMKF  C2018 06 13HIoaS[0hG1w`reP`!hwgSY_=?\YxDmtlqD-J%q8\6@TUqnV9EDl%F51
     P10HMKF  C2018 06 13]cx?CP=6K/-Ip1(AJ.#:)1oK9Ko+*Rn\Lk3i(^Sia#UiE%QsZ4h4F51
     P10HMKF KC2018 06 14nmMsc2Xo[:uLMe.erredacted;RLu-otf!w_5e'J3tQ,]dd-yY(K474
     P10HMKF KC2018 06 14,G4L?fRoMHC9#@R8_YbrSnYk2wR1VZ6=\JiUjAJ=CnVFh._(A!Tu474
     P10HMKF KC2018 06 14og@'er8u,)lhS[DDWH;Tpr!9Z:uVoOQeqqF6C91OB$rO9pMJriYi474
     P10HMKF KC2018 06 14;Z\ONW+C`6bWacm*Y4x7,M*U/txh=9yBsee*0N'Kdj\-*0ccDaT*474
     P10HMKF |C2018 06 17h8`wG[uiRhk,1O_WA#!$)..nqKlXYwq]xsrsbKb.WM]Mf:oi;MM#807
     P10HMKF |C2018 06 17[ut`g,?a6_cN2LSN40!q8gfa1'4^+I3Y/f(?'ruf\IRb#'vg(mYp807
     P10HMKF |C2018 06 17Yt';.?1RY@,yKuFW$y?[o.b6Xv0_7?X7P0JK=J'B*wQ3UP,NEOCP807

Station data:
(474) Mount John Observatory, Lake Tekapo  (S43.987388 E170.464960)  New
   Zealand.  Observers A. C. Gilmore, P. M. Kilmartin. Measurer P. M.
   Kilmartin. 1.0-m f/7.7 reflector + CCD.
(807) Cerro Tololo Observatory, La Serena  (S30.169136 W70.805900)  Chile.
   1.5-m Ritchey-Chrétien.
(F51) Pan-STARRS 1, Haleakala  (N20.707235 W156.255910)  US/Hawaii.
   Observers N. Primak, A. Schultz, S. Watters, J. Thiel, T. Goggia. Measurer
   PS1 Science Consortium. 1.8-m Ritchey-Chrétien + CCD.

Orbital elements:  P10HMKF
   Perihelion 2018 Aug 18.618254 +/- 6.46 TT = 14:50:17 (JD 2458349.118254)
Epoch 2018 Jun 17.0 TT = JDT 2458286.5   Earth MOID: 0.5531   AutoNEOCP
M 343.04702 +/- 3.5                 (J2000 ecliptic)
n   0.27073538 +/- 0.0339           Peri.  326.10970 +/- 5.5
a   2.36649740 +/- 0.197            Node     1.92517 +/- 1.9
e   0.3481617 +/- 0.0413            Incl.   14.11595 +/- 0.13
P   3.64                   H 18.7   G  0.15   U 10.5  
q 1.54257348 +/- 0.0348    Q 3.19042131 +/- 0.408
From 10 observations 2018 June 13-17; mean residual 0".19
Residuals in arcseconds: 
180613 F51  .01-  .05+    180614 474  .31+  .13-    180617 807  .01+  .12+    
180613 F51  .01+  .02+    180614 474  .44-  .48+    180617 807  .11+  .13-    
180613 F51  .01-  .07-    180614 474  .04+  .01-    
180614 474  .09+  .34-    180617 807  .12-  .02+    

Ephemerides (geocentric):
Date (UTC) HH   RA              Dec         delta   r     elong  mag " sig PA
---- -- -- --  -------------   -----------  ------ ------ -----  --- ---- ---
2018 06 17 14  22 37 02.284   -35 20 03.73  .89254 1.6218 116.2 20.9  .17  97
2018 06 17 15  22 37 06.829   -35 19 56.01  .89221 1.6217 116.2 20.9  .19  98
2018 06 17 16  22 37 11.371   -35 19 48.29  .89187 1.6216 116.3 20.9  .20  99
2018 06 17 17  22 37 15.909   -35 19 40.57  .89154 1.6215 116.3 20.9  .21 100
2018 06 17 18  22 37 20.445   -35 19 32.84  .89120 1.6214 116.3 20.9  .22 100
2018 06 17 19  22 37 24.978   -35 19 25.12  .89087 1.6213 116.3 20.9  .23 101
2018 06 17 20  22 37 29.507   -35 19 17.39  .89054 1.6212 116.3 20.9  .25 101
2018 06 17 21  22 37 34.033   -35 19 09.66  .89020 1.6211 116.4 20.9  .26 102
2018 06 17 22  22 37 38.557   -35 19 01.93  .88987 1.6210 116.4 20.9  .27 102
2018 06 17 23  22 37 43.077   -35 18 54.19  .88954 1.6209 116.4 20.9  .28 103
2018 06 18 00  22 37 47.594   -35 18 46.46  .88920 1.6208 116.4 20.9  .30 103
2018 06 18 01  22 37 52.108   -35 18 38.72  .88887 1.6207 116.4 20.9  .31 103
2018 06 18 02  22 37 56.619   -35 18 30.98  .88854 1.6206 116.5 20.9  .32 104
2018 06 18 03  22 38 01.126   -35 18 23.24  .88821 1.6205 116.5 20.9  .34 104
2018 06 18 04  22 38 05.631   -35 18 15.50  .88787 1.6204 116.5 20.9  .35 104
2018 06 18 05  22 38 10.132   -35 18 07.76  .88754 1.6203 116.5 20.9  .36 104
2018 06 18 06  22 38 14.631   -35 18 00.02  .88721 1.6202 116.5 20.9  .38 105
2018 06 18 07  22 38 19.126   -35 17 52.27  .88688 1.6201 116.6 20.9  .39 105
2018 06 18 08  22 38 23.618   -35 17 44.52  .88654 1.6200 116.6 20.9  .41 105
2018 06 18 09  22 38 28.107   -35 17 36.77  .88621 1.6199 116.6 20.9  .42 105
2018 06 18 10  22 38 32.592   -35 17 29.02  .88588 1.6198 116.6 20.9  .44 105
2018 06 18 11  22 38 37.075   -35 17 21.27  .88555 1.6197 116.6 20.9  .45 106
2018 06 18 12  22 38 41.554   -35 17 13.51  .88522 1.6196 116.7 20.9  .47 106
2018 06 18 13  22 38 46.031   -35 17 05.76  .88489 1.6195 116.7 20.9  .48 106
2018 06 18 14  22 38 50.504   -35 16 58.00  .88456 1.6194 116.7 20.9  .50 106
2018 06 18 15  22 38 54.974   -35 16 50.24  .88422 1.6193 116.7 20.9  .51 106
2018 06 18 16  22 38 59.441   -35 16 42.48  .88389 1.6192 116.7 20.9  .53 106
2018 06 18 17  22 39 03.904   -35 16 34.72  .88356 1.6191 116.8 20.9  .54 106
2018 06 18 18  22 39 08.365   -35 16 26.95  .88323 1.6190 116.8 20.9  .56 106
2018 06 18 19  22 39 12.822   -35 16 19.19  .88290 1.6189 116.8 20.9  .58 107
2018 06 18 20  22 39 17.276   -35 16 11.42  .88257 1.6188 116.8 20.9  .59 107
2018 06 18 21  22 39 21.727   -35 16 03.65  .88224 1.6187 116.8 20.9  .61 107
2018 06 18 22  22 39 26.175   -35 15 55.88  .88191 1.6186 116.9 20.9  .63 107
2018 06 18 23  22 39 30.620   -35 15 48.11  .88158 1.6185 116.9 20.9  .64 107
2018 06 19 00  22 39 35.061   -35 15 40.34  .88125 1.6184 116.9 20.9  .66 107
2018 06 19 01  22 39 39.499   -35 15 32.56  .88092 1.6183 116.9 20.9  .68 107
2018 06 19 02  22 39 43.935   -35 15 24.78  .88059 1.6182 116.9 20.9  .70 107
2018 06 19 03  22 39 48.366   -35 15 17.00  .88026 1.6181 117.0 20.9  .71 107
2018 06 19 04  22 39 52.795   -35 15 09.22  .87993 1.6180 117.0 20.9  .73 107
2018 06 19 05  22 39 57.221   -35 15 01.44  .87960 1.6179 117.0 20.9  .75 107
2018 06 19 06  22 40 01.643   -35 14 53.66  .87927 1.6178 117.0 20.9  .77 107
2018 06 19 07  22 40 06.062   -35 14 45.87  .87894 1.6177 117.0 20.9  .79 107
2018 06 19 08  22 40 10.478   -35 14 38.09  .87862 1.6176 117.1 20.9  .80 107
2018 06 19 09  22 40 14.891   -35 14 30.30  .87829 1.6175 117.1 20.9  .82 107
2018 06 19 10  22 40 19.301   -35 14 22.51  .87796 1.6174 117.1 20.9  .84 107
2018 06 19 11  22 40 23.707   -35 14 14.72  .87763 1.6173 117.1 20.9  .86 107
2018 06 19 12  22 40 28.110   -35 14 06.92  .87730 1.6172 117.1 20.9  .88 107
2018 06 19 13  22 40 32.510   -35 13 59.13  .87697 1.6171 117.2 20.9  .90 107